Time,TemperatureF,DewpointF,PressureIn,WindDirection,WindDirectionDegrees,WindSpeedMPH,WindSpeedGustMPH,Humidity,HourlyPrecipIn,Conditions,Clouds,dailyrainin,SoftwareType,DateUTC
2017-05-24 00:00:00,50.2,47.7,29.71,West,270,4.7,-999.0,91,-99.99,,,0.00,,2017-05-24 05:00:00,
2017-05-24 00:05:00,50.4,47.9,29.70,West,270,3.7,-999.0,91,-99.99,,,0.00,,2017-05-24 05:05:00,
2017-05-24 00:10:00,50.4,47.6,29.70,WNW,292,9.9,-999.0,90,-99.99,,,0.00,,2017-05-24 05:10:00,
2017-05-24 00:16:00,50.4,47.6,29.70,WNW,292,5.3,-999.0,90,-99.99,,,0.00,,2017-05-24 05:16:00,
2017-05-24 00:21:00,50.5,47.7,29.70,WNW,292,7.8,-999.0,90,-99.99,,,0.00,,2017-05-24 05:21:00,
2017-05-24 00:27:00,50.5,47.7,29.70,NNE,22,4.2,-999.0,90,-99.99,,,0.00,,2017-05-24 05:27:00,
2017-05-24 00:32:00,50.4,47.9,29.70,NNW,337,4.7,-999.0,91,-99.99,,,0.01,,2017-05-24 05:32:00,
2017-05-24 00:37:00,50.2,48.0,29.70,NW,315,6.3,-999.0,92,-99.99,,,0.01,,2017-05-24 05:37:00,
2017-05-24 00:43:00,50.2,48.0,29.69,North,360,3.7,-999.0,92,-99.99,,,0.01,,2017-05-24 05:43:00,
2017-05-24 00:48:00,50.2,48.0,29.69,WNW,292,6.8,-999.0,92,-99.99,,,0.01,,2017-05-24 05:48:00,
2017-05-24 00:54:00,50.2,48.0,29.69,NNW,337,3.2,-999.0,92,-99.99,,,0.02,,2017-05-24 05:54:00,
2017-05-24 00:59:00,50.2,48.0,29.69,NE,45,4.7,-999.0,92,-99.99,,,0.02,,2017-05-24 05:59:00,
2017-05-24 01:04:00,50.2,48.0,29.69,West,270,4.7,-999.0,92,-99.99,,,0.02,,2017-05-24 06:04:00,
2017-05-24 01:10:00,50.2,48.0,29.69,NNE,22,3.2,-999.0,92,-99.99,,,0.06,,2017-05-24 06:10:00,
2017-05-24 01:15:00,50.2,48.3,29.68,NW,315,6.8,-999.0,93,-99.99,,,0.06,,2017-05-24 06:15:00,
2017-05-24 01:20:00,50.2,48.3,29.68,WNW,292,3.7,-999.0,93,-99.99,,,0.06,,2017-05-24 06:20:00,
2017-05-24 01:26:00,50.0,48.1,29.68,NE,45,5.8,-999.0,93,-99.99,,,0.06,,2017-05-24 06:26:00,
2017-05-24 01:31:00,50.0,48.1,29.68,NNE,22,3.7,-999.0,93,-99.99,,,0.06,,2017-05-24 06:31:00,
2017-05-24 01:36:00,50.0,48.1,29.68,WNW,292,5.3,-999.0,93,-99.99,,,0.06,,2017-05-24 06:36:00,
2017-05-24 01:42:00,50.0,48.1,29.68,NNE,22,6.3,-999.0,93,-99.99,,,0.06,,2017-05-24 06:42:00,
2017-05-24 01:47:00,50.2,48.3,29.68,West,270,10.9,-999.0,93,-99.99,,,0.06,,2017-05-24 06:47:00,
2017-05-24 01:53:00,50.2,48.0,29.68,North,360,4.7,-999.0,92,-99.99,,,0.06,,2017-05-24 06:53:00,
2017-05-24 01:58:00,50.4,48.2,29.68,WNW,292,5.8,-999.0,92,-99.99,,,0.06,,2017-05-24 06:58:00,
2017-05-24 02:03:00,50.4,48.2,29.68,NE,45,4.2,-999.0,92,-99.99,,,0.06,,2017-05-24 07:03:00,
2017-05-24 02:09:00,50.4,48.2,29.68,NNW,337,2.7,-999.0,92,-99.99,,,0.06,,2017-05-24 07:09:00,
2017-05-24 02:14:00,50.4,48.2,29.68,NNE,22,8.3,-999.0,92,-99.99,,,0.06,,2017-05-24 07:14:00,
2017-05-24 02:20:00,50.4,48.2,29.68,North,360,4.2,-999.0,92,-99.99,,,0.06,,2017-05-24 07:20:00,
2017-05-24 02:25:00,50.4,48.2,29.68,NNE,22,5.8,-999.0,92,-99.99,,,0.06,,2017-05-24 07:25:00,
2017-05-24 02:30:00,50.4,48.2,29.67,NNW,337,5.8,-999.0,92,-99.99,,,0.06,,2017-05-24 07:30:00,
2017-05-24 02:36:00,50.4,48.2,29.67,NNE,22,5.3,-999.0,92,-99.99,,,0.06,,2017-05-24 07:36:00,
2017-05-24 02:41:00,50.4,48.2,29.67,NNW,337,5.8,-999.0,92,-99.99,,,0.06,,2017-05-24 07:41:00,
2017-05-24 02:47:00,50.4,48.2,29.67,NE,45,4.2,-999.0,92,-99.99,,,0.07,,2017-05-24 07:47:00,
2017-05-24 02:52:00,50.4,48.2,29.67,NE,45,6.3,-999.0,92,-99.99,,,0.07,,2017-05-24 07:52:00,
2017-05-24 02:57:00,50.4,48.2,29.67,North,360,3.2,-999.0,92,-99.99,,,0.07,,2017-05-24 07:57:00,
2017-05-24 03:03:00,50.4,48.2,29.67,NW,315,4.2,-999.0,92,-99.99,,,0.07,,2017-05-24 08:03:00,
2017-05-24 03:08:00,50.4,48.2,29.67,North,360,4.7,-999.0,92,-99.99,,,0.07,,2017-05-24 08:08:00,
2017-05-24 03:13:00,50.4,48.2,29.67,NNW,337,4.2,-999.0,92,-99.99,,,0.07,,2017-05-24 08:13:00,
2017-05-24 03:18:00,50.4,48.2,29.67,NNW,337,10.9,-999.0,92,-99.99,,,0.07,,2017-05-24 08:18:00,
2017-05-24 03:24:00,50.4,48.2,29.67,NNW,337,3.7,-999.0,92,-99.99,,,0.08,,2017-05-24 08:24:00,
2017-05-24 03:29:00,50.4,48.2,29.67,NW,315,4.7,-999.0,92,-99.99,,,0.08,,2017-05-24 08:29:00,
2017-05-24 03:34:00,50.4,48.2,29.67,NNW,337,5.8,-999.0,92,-99.99,,,0.08,,2017-05-24 08:34:00,
2017-05-24 03:40:00,50.4,48.2,29.67,NW,315,5.8,-999.0,92,-99.99,,,0.08,,2017-05-24 08:40:00,
2017-05-24 03:45:00,50.4,48.2,29.67,NNW,337,8.3,-999.0,92,-99.99,,,0.08,,2017-05-24 08:45:00,
2017-05-24 03:50:00,50.2,47.7,29.67,NNW,337,4.2,-999.0,91,-99.99,,,0.08,,2017-05-24 08:50:00,
2017-05-24 03:56:00,50.2,47.7,29.67,NW,315,4.7,-999.0,91,-99.99,,,0.08,,2017-05-24 08:56:00,
2017-05-24 04:01:00,50.2,47.7,29.67,NNW,337,4.7,-999.0,91,-99.99,,,0.08,,2017-05-24 09:01:00,
2017-05-24 04:06:00,50.2,47.7,29.67,WNW,292,4.7,-999.0,91,-99.99,,,0.08,,2017-05-24 09:06:00,
2017-05-24 04:12:00,50.0,47.5,29.67,North,360,4.2,-999.0,91,-99.99,,,0.08,,2017-05-24 09:12:00,
2017-05-24 04:17:00,50.0,47.5,29.67,WNW,292,7.8,-999.0,91,-99.99,,,0.08,,2017-05-24 09:17:00,
2017-05-24 04:22:00,50.0,47.5,29.67,WNW,292,5.3,-999.0,91,-99.99,,,0.08,,2017-05-24 09:22:00,
2017-05-24 04:28:00,50.0,47.5,29.67,North,360,5.3,-999.0,91,-99.99,,,0.08,,2017-05-24 09:28:00,
2017-05-24 04:33:00,50.0,47.5,29.67,NNW,337,6.3,-999.0,91,-99.99,,,0.08,,2017-05-24 09:33:00,
2017-05-24 04:39:00,50.0,47.5,29.67,NNW,337,4.2,-999.0,91,-99.99,,,0.08,,2017-05-24 09:39:00,
2017-05-24 04:44:00,49.8,47.3,29.67,NW,315,3.7,-999.0,91,-99.99,,,0.08,,2017-05-24 09:44:00,
2017-05-24 04:50:00,49.8,47.3,29.67,NNE,22,6.3,-999.0,91,-99.99,,,0.08,,2017-05-24 09:50:00,
2017-05-24 04:55:00,49.8,47.3,29.67,West,270,5.8,-999.0,91,-99.99,,,0.08,,2017-05-24 09:55:00,
2017-05-24 05:01:00,49.6,47.1,29.67,NNW,337,5.8,-999.0,91,-99.99,,,0.08,,2017-05-24 10:01:00,
2017-05-24 05:06:00,49.6,47.1,29.67,NW,315,4.2,-999.0,91,-99.99,,,0.08,,2017-05-24 10:06:00,
2017-05-24 05:11:00,49.5,47.0,29.67,WNW,292,4.7,-999.0,91,-99.99,,,0.08,,2017-05-24 10:11:00,
2017-05-24 05:17:00,49.5,47.0,29.68,North,360,4.7,-999.0,91,-99.99,,,0.08,,2017-05-24 10:17:00,
2017-05-24 05:22:00,49.3,47.1,29.68,North,360,4.7,-999.0,92,-99.99,,,0.08,,2017-05-24 10:22:00,
2017-05-24 05:28:00,49.3,47.1,29.67,NNE,22,4.7,-999.0,92,-99.99,,,0.08,,2017-05-24 10:28:00,
2017-05-24 05:33:00,49.3,47.1,29.67,South,180,9.4,-999.0,92,-99.99,,,0.08,,2017-05-24 10:33:00,
2017-05-24 05:38:00,49.1,46.9,29.67,NNE,22,2.7,-999.0,92,-99.99,,,0.08,,2017-05-24 10:38:00,
2017-05-24 05:44:00,49.1,46.9,29.67,NNE,22,3.7,-999.0,92,-99.99,,,0.08,,2017-05-24 10:44:00,
2017-05-24 05:49:00,49.1,46.9,29.67,NW,315,3.7,-999.0,92,-99.99,,,0.08,,2017-05-24 10:49:00,
2017-05-24 05:54:00,49.1,46.9,29.67,WNW,292,3.7,-999.0,92,-99.99,,,0.08,,2017-05-24 10:54:00,
2017-05-24 05:59:00,48.9,46.7,29.67,West,270,3.7,-999.0,92,-99.99,,,0.08,,2017-05-24 10:59:00,